Regional Weather Roundup
Issued by NWS

Home | Current Version | Previous Version | Graphics & Text | Print | Product List | Glossary On
Versions: 1 2 3 4 5 6 7 8 9 10 11 12 13 14 15 16 17 18 19 20 21 22 23 24 25 26 27 28 29 30 31 32 33 34 35 36 37 38 39 40 41 42 43 44 45 46 47 48 49 50
000
ASUS44 KMEG 031010
RWRTN
TENNESSEE HOURLY STATE WEATHER ROUNDUP
NATIONAL WEATHER SERVICE MEMPHIS TN
500 AM CDT TUE MAY 03 2016

TNZ002-004-019-021-049-052-054-088>092-031100-
WEST TENNESSEE

CITY           SKY/WX    TMP DP  RH WIND       PRES   REMARKS
MEMPHIS INTL   PTCLDY    56  50  80 N6        29.98S
NWS MEMPHIS      N/A     55 N/A N/A MISG        N/A
JACKSON        CLOUDY    56  50  80 N7        29.97S
DYERSBURG      CLOUDY    55  52  88 N5          N/A
UNION CITY     CLOUDY    55  52  88 N6        29.97S
LEXINGTON      CLOUDY    54  54 100 CALM      29.94F
$$

TNZ008-025-027-028-033-062-065-066-031100-
NORTH MIDDLE TENNESSEE

CITY           SKY/WX    TMP DP  RH WIND       PRES   REMARKS
NASHVILLE      CLOUDY    57  50  77 CALM      29.94F
CLARKSVILLE    CLOUDY    53  49  86 NW7       29.96S
SMYRNA         CLOUDY    56  53  89 N6        29.96S
COOKEVILLE     CLOUDY    55  55 100 N3        29.91F
CROSSVILLE     CLOUDY    55  53  93 N8        29.92S FOG
$$

TNZ061-075-076-078-094-096-097-031100-
SOUTH MIDDLE TENNESSEE

CITY           SKY/WX    TMP DP  RH WIND       PRES   REMARKS
FAYETTEVILLE   CLOUDY    59  57  94 CALM      29.93S
TULLAHOMA      CLOUDY    55  55 100 N7        29.94R
WINCHESTER     CLOUDY    57  55  94 N6        29.93R
MCMINNVILLE    CLOUDY    57  57 100 N6        29.93R
COLUMBIA       MOCLDY   N/A N/A N/A N3        29.93F
SHELBYVILLE    CLOUDY    57  55  94 N10       29.95R
$$

TNZ017-018-042-046-047-031100-
NORTHEAST TENNESSEE

CITY           SKY/WX    TMP DP  RH WIND       PRES   REMARKS
TRI CITIES     LGT RAIN  59  57  93 NW3       29.88R
$$

TNZ012-013-036-069-073-074-031100-
CENTRAL EAST TENNESSEE

CITY           SKY/WX    TMP DP  RH WIND       PRES   REMARKS
KNOXVILLE      CLOUDY    62  60  93 CALM      29.87S
OAK RIDGE      CLOUDY    61  59  93 CALM      29.89S
GATLINBURG     PTSUNNY   59  59 100 CALM      29.87F
MORRISTOWN     CLOUDY    61  59  94 CALM      29.87F
$$

TNZ083-085-099-031100-
SOUTHEAST TENNESSEE

CITY           SKY/WX    TMP DP  RH WIND       PRES   REMARKS
CHATTANOOGA    CLOUDY    64  61  90 CALM      29.89S
$$

SKY/WX REPORTED AS FAIR MEANS FEW OR NO CLOUDS BELOW
12 THOUSAND FEET.





USA.gov is the U.S. government's official web portal to all federal, state and local government web resources and services.